Погода в Ассоколае

Россия / Республика Адыгея     44°50′40″N   39°28′03″E
темп.,
°C
ветер,
м/с
пор.,
м/с
влажн.,
%
обл.,
%
осадки,
мм/ч
давл.,
гПа
погр.,
м
12 мая, ср
ср1200:00+9ююв3868100 0.1 1016507
03:00+9юв257235 0.2 1016276
06:00+7в3692100 0.0 1017190
09:00+11вюв357656 0.0 1016366
12:00+17в345125 0.0 10151287
15:00+19всв5556100 0.0 1013804
18:00+17всв3876100 0.0 1013355
21:00+12в229228 0.0 101328
13 мая, чт
чт1300:00+10ююв12930 0.0 101212
03:00+9юз11950 0.0 101211
06:00+10ю11930 0.0 101214
09:00+18всв11655 0.0 1012309
12:00+23всв3354100 0.0 1012657
15:00+25всв465522 0.0 1012924
18:00+22всв41073100 0.0 1010468
21:00+17в37900 0.0 1011129
14 мая, пт
пт1400:00+15ююв22925 0.0 101016
03:00+14ююв22840 0.0 101011
06:00+15юв22682 0.0 101120
09:00+24в23505 0.0 1010203
12:00+28всв33441 0.0 1010589
15:00+29св33485 0.0 1009739
18:00+27ссв22755 0.0 100961
21:00+21ююз01895 0.0 100911
15 мая, сб
сб1500:00+17з35940 0.0 101076
03:00+15зсз24935 0.0 101162
06:00+14юз22900 0.0 101336
09:00+21зсз23655 0.0 1013401
12:00+25ссз225579 0.0 1013865
15:00+26св32575 0.0 1012933
18:00+25св24735 0.0 1011318
21:00+19всв22911 0.2 101117
16 мая, вс
вс1600:00+17юв11946 0.0 101011
03:00+17в119615 0.2 101011
06:00+17всв129641 0.0 100952
09:00+23всв357888 0.0 1007556
12:00+27всв56635 0.0 10041087
15:00+29всв576336 0.0 10021372
18:00+26всв5117428 0.0 1000618
21:00+20в22885 0.0 100129